Wind_Speed
27 27 26 27 28 24 20 24 24 23 25 22 22 19 19 20 20 20 20 11 15 16 13 12 14 13 10 3 4 3 13 11 5 4 8 8 8 10 7 9 12 2 8 9 7 19 7
28 25 27 29 31 26 21 24 22 23 24 25 22 20 21 20 20 19 20 13 11 14 14 11 12 10 5 5 4 9 10 10 4 3 2 7 5 5 6 5 11 8 6 5 8 7 7
29 28 25 27 34 34 23 22 21 25 23 25 22 21 23 20 19 18 18 16 12 11 11 11 9 7 10 16 6 6 7 9 7 3 7 11 5 5 2 6 14 11 4 3 8 1 5
28 29 28 26 30 27 27 20 21 24 24 24 23 23 23 21 19 19 17 14 9 8 8 9 6 3 7 9 10 10 3 6 7 6 7 14 7 10 7 4 8 7 5 3 5 3 6
31 29 29 29 29 29 27 21 22 23 24 23 23 23 23 23 22 18 15 6 5 8 7 6 1 5 6 5 8 8 4 1 5 5 2 7 4 5 7 4 5 0 4 5 2 11 7
26 31 30 30 29 26 28 30 24 25 24 23 23 23 23 23 20 16 9 2 4 6 2 3 7 9 6 8 16 14 6 4 1 2 6 3 8 5 4 7 8 8 6 5 3 4 5
28 28 29 30 31 31 29 32 25 25 23 22 21 22 23 22 17 12 3 1 2 2 3 5 5 9 7 9 7 7 9 5 2 2 4 1 3 7 10 7 12 10 6 8 6 5 2
40 36 32 30 30 30 32 33 29 25 21 20 20 21 21 20 13 6 4 3 2 3 5 2 2 8 4 5 6 5 4 4 1 2 3 4 2 5 6 7 17 14 10 4 3 12 5
34 39 40 38 31 31 33 33 30 27 19 19 19 19 19 14 5 4 3 1 3 3 2 2 0 3 3 4 3 2 1 1 2 5 4 6 3 8 5 6 14 9 15 11 2 6 2
38 38 39 39 40 30 34 32 33 28 21 17 16 17 16 9 2 3 2 2 2 1 3 1 2 2 2 3 3 4 3 2 6 2 7 3 5 4 7 14 8 6 18 16 17 4 2
41 41 38 36 41 39 26 37 34 29 21 16 14 15 14 5 5 4 1 2 2 2 3 1 2 0 3 3 4 2 3 1 5 7 4 3 4 4 8 6 5 0 19 16 12 12 1
42 40 38 35 37 40 39 35 31 29 19 16 13 13 10 4 7 4 3 5 4 4 2 1 3 2 1 2 3 2 2 3 2 6 6 5 4 4 1 4 6 5 14 8 5 3 3
38 37 39 39 38 37 39 35 29 29 22 13 12 9 7 8 5 5 8 5 3 4 3 3 5 4 4 0 3 1 1 1 0 4 5 5 6 4 1 4 7 6 6 3 4 3 4
40 36 38 34 34 35 34 32 34 28 21 10 11 7 9 8 8 10 11 2 2 4 5 3 7 4 2 1 3 3 1 2 3 4 4 4 2 7 8 3 1 2 4 4 5 4 4
38 38 41 39 34 34 30 31 43 31 19 11 10 12 10 11 10 13 6 2 3 6 5 8 10 8 1 1 1 1 2 5 3 1 5 4 2 3 2 4 3 4 3 3 4 3 4
39 39 42 46 46 34 22 23 44 32 19 14 15 13 10 12 10 11 2 3 3 3 4 6 4 5 5 6 4 1 2 3 3 3 1 5 5 2 4 4 1 2 2 3 3 3 2
41 40 39 43 47 36 26 23 41 32 21 19 18 8 12 12 11 5 3 4 5 5 3 5 3 5 5 6 5 4 2 2 1 1 5 2 3 1 2 2 1 3 2 3 3 4 4
43 40 40 45 53 35 27 28 38 31 22 26 15 3 12 15 4 5 4 5 2 5 1 2 2 2 6 6 6 5 5 1 3 5 1 2 4 3 2 1 1 2 1 3 4 4 0
40 41 43 46 50 37 35 26 44 33 21 35 14 6 14 16 3 4 4 4 3 5 4 4 3 2 3 5 5 5 5 2 4 3 1 2 2 3 2 4 3 3 4 3 2 2 2
42 42 44 44 43 29 35 38 45 33 28 28 11 4 5 11 7 4 6 6 4 2 4 2 2 3 1 2 3 4 3 1 4 4 4 3 3 5 5 4 4 4 5 5 4 3 3
43 44 46 45 45 33 31 42 40 32 36 24 11 5 9 5 7 6 2 4 7 4 2 6 1 3 3 3 3 4 7 3 4 3 3 3 3 2 1 3 2 2 5 8 7 6 5
43 44 45 44 43 32 33 45 40 37 40 22 9 6 11 7 8 10 4 5 12 6 6 4 2 6 4 4 2 5 9 5 4 2 3 2 2 2 3 0 2 3 5 5 7 5 7
42 43 44 46 40 35 19 50 38 42 45 17 13 10 9 11 5 6 4 5 8 8 3 7 6 6 6 4 4 6 3 13 10 7 5 5 4 3 3 3 2 5 8 9 5 4 8
39 41 40 44 39 34 20 40 41 44 44 15 18 16 5 3 6 7 4 7 8 5 6 5 11 5 4 6 6 6 11 14 11 3 5 4 4 2 2 2 0 6 2 1 11 5 6
38 39 38 43 38 30 20 31 33 35 41 15 18 12 5 3 4 5 4 5 12 12 5 6 5 7 9 5 4 4 3 3 3 5 5 4 3 2 3 2 4 2 3 3 3 3 4
35 38 40 41 38 25 18 32 34 33 37 22 16 11 3 8 1 1 5 12 5 4 3 4 7 9 6 2 2 4 4 4 3 1 4 4 3 3 2 2 4 4 3 4 3 1 5
34 36 40 39 27 18 27 36 34 31 35 24 13 10 4 9 4 4 4 5 6 5 4 5 5 3 2 2 2 3 3 5 5 7 5 2 2 4 3 2 5 4 3 3 3 3 8
32 34 36 34 9 6 29 34 32 32 35 28 16 12 7 8 10 6 7 5 5 6 4 7 5 2 2 2 3 3 3 4 4 6 6 6 5 4 3 2 5 3 3 1 3 10 10
29 31 32 24 6 13 27 29 32 27 29 30 15 13 9 9 11 12 12 9 8 8 10 5 3 3 3 3 0 1 0 1 4 3 1 2 5 4 6 4 2 12 18 14 12 11 10
Wind_Direction
318 319 316 314 311 307 331 328 324 326 326 326 330 326 325 321 318 317 318 284 308 313 308 314 319 323 330 317 284 323 333 337 344 328 235 262 271 201 185 180 166 192 174 197 312 299 241
311 311 315 315 311 306 314 325 318 323 324 319 327 324 322 318 318 317 312 287 280 302 308 303 314 329 323 272 295 312 342 323 350 324 293 253 318 224 234 192 179 145 83 154 287 325 292
311 310 310 315 316 302 303 317 314 320 320 316 324 322 318 318 311 314 308 306 268 284 300 304 310 316 294 263 274 315 4 334 331 310 226 223 335 352 324 193 168 138 104 104 235 1 331
304 307 308 309 310 306 287 308 308 314 319 314 320 325 324 320 315 309 306 300 274 287 300 312 314 297 256 273 258 267 217 312 326 322 229 218 336 311 254 334 97 106 81 62 326 206 327
298 301 303 305 308 306 281 299 310 307 315 312 316 324 325 321 320 317 312 304 285 285 296 323 18 273 270 256 259 282 248 272 272 333 170 206 280 247 213 234 109 293 131 152 346 203 222
318 303 298 302 305 307 296 296 305 304 311 309 313 320 324 322 322 320 326 318 290 299 294 308 304 289 267 303 283 272 204 170 259 3 90 219 193 217 187 203 177 148 134 167 180 21 110
306 314 307 292 303 301 298 307 287 305 304 306 310 318 323 324 326 324 354 48 9 359 228 245 299 302 306 348 27 84 152 171 71 40 140 11 94 194 207 214 139 124 90 166 192 220 144
288 294 305 291 283 297 296 299 277 294 296 303 308 316 321 325 329 332 98 59 350 323 315 358 300 5 355 11 41 82 156 210 80 75 128 92 283 230 256 157 124 105 90 79 172 181 222
315 297 291 298 285 281 288 291 281 277 291 299 304 313 318 326 347 68 136 242 298 288 256 156 302 315 24 42 95 197 252 119 163 103 148 162 175 234 119 218 140 152 172 165 178 140 282
320 312 299 289 296 281 286 286 287 268 285 293 299 308 313 320 117 86 55 296 252 257 81 73 207 315 10 85 53 270 221 348 47 62 100 53 192 204 115 175 219 191 174 153 123 104 142
320 316 309 284 291 290 296 275 282 267 276 282 293 302 305 265 162 137 214 296 157 150 61 317 112 239 45 147 172 291 241 277 97 79 177 45 96 90 66 327 137 286 135 144 148 138 210
319 318 314 297 291 293 288 273 271 262 263 270 282 293 290 203 179 168 176 156 143 49 261 219 136 159 97 180 192 205 267 223 257 44 92 83 81 54 280 319 106 219 89 71 77 81 43
318 315 317 295 294 298 291 296 262 250 257 253 269 276 223 168 166 143 145 150 45 111 278 197 166 159 138 15 28 225 178 52 130 79 31 23 33 342 336 20 10 66 69 44 26 37 213
320 319 321 303 300 297 290 302 248 240 240 227 252 215 187 156 183 150 141 97 100 183 197 188 133 116 109 86 13 314 191 70 356 76 83 72 29 343 346 44 242 71 91 151 156 176 222
320 327 321 322 328 301 288 300 236 233 222 208 208 181 170 158 151 148 159 119 207 214 150 158 154 149 178 207 123 282 236 173 222 193 116 122 44 317 1 339 19 314 50 200 110 67 87
325 326 325 323 326 331 294 275 227 219 211 189 181 167 171 166 157 161 160 259 204 261 140 174 177 177 144 173 134 256 222 33 157 238 304 166 105 314 312 325 337 92 240 56 5 112 170
325 326 324 319 324 309 298 322 223 205 194 160 165 163 174 174 157 172 189 232 206 233 41 163 223 195 136 148 151 201 125 320 70 261 32 120 91 269 70 324 298 9 32 44 99 129 164
322 326 324 325 325 310 282 288 209 190 176 158 168 169 174 173 151 224 193 198 249 163 139 45 220 268 154 149 164 184 173 100 184 158 88 43 112 111 175 189 6 60 290 127 119 269 41
323 324 326 316 323 310 300 242 198 183 200 162 164 133 176 176 179 196 265 199 216 145 192 194 238 45 13 149 123 136 121 311 173 128 127 141 125 99 0 352 336 225 212 216 120 60 210
322 323 323 319 321 310 326 202 197 180 169 160 159 141 159 202 242 210 202 190 183 153 216 179 43 49 53 88 104 120 104 324 88 100 63 73 143 156 180 201 150 190 204 208 134 117 200
318 320 322 320 324 309 279 205 198 180 166 158 179 186 173 171 222 217 262 201 164 158 248 167 240 203 198 138 96 110 116 112 64 86 39 92 94 86 350 53 57 205 205 202 183 204 183
314 316 320 320 325 309 269 204 194 170 161 183 168 159 170 175 188 187 220 230 181 161 150 195 176 204 112 94 66 154 137 178 181 185 141 142 163 96 342 141 350 309 281 239 234 213 243
313 317 319 318 320 348 243 197 195 172 170 174 193 167 154 148 141 148 218 200 178 122 83 161 185 115 106 135 100 83 150 186 158 148 170 151 129 97 262 352 3 297 223 217 218 208 207
312 315 316 314 322 330 186 202 189 179 175 168 175 165 140 166 150 193 191 206 142 117 134 66 77 96 164 131 116 85 81 108 104 122 169 132 115 99 182 41 309 249 65 277 221 245 224
310 313 312 315 314 314 306 204 194 187 178 179 178 178 158 124 149 191 148 120 101 104 98 90 73 117 144 129 87 78 13 50 70 53 36 95 104 172 129 195 277 277 243 204 159 48 359
310 312 312 312 308 286 247 199 193 189 181 198 195 187 155 122 225 151 125 141 130 116 56 78 101 135 135 105 119 150 179 167 151 82 61 98 120 129 173 173 244 230 193 134 96 170 21
309 308 314 315 323 268 214 196 188 185 182 192 194 187 151 106 52 84 110 162 145 134 115 130 144 104 101 101 123 154 218 154 156 164 165 130 140 179 227 237 278 224 173 90 104 204 74
309 309 313 320 321 281 191 189 185 183 190 193 195 193 177 106 69 97 125 127 128 129 129 159 99 12 56 133 139 226 145 217 131 171 170 160 161 187 163 184 278 138 78 136 134 77 65
304 307 308 322 57 158 182 182 182 177 191 202 206 191 165 109 109 106 105 102 117 119 128 116 110 102 128 96 285 115 118 65 150 188 47 176 178 180 162 206 137 86 98 83 82 62 28
Height
1554 1549 1545 1542 1538 1536 1533 1532 1529 1524 1522 1516 1514 1513 1510 1507 1504 1502 1499 1498 1496 1494 1493 1492 1490 1488 1485 1484 1482 1479 1477 1476 1473 1472 1472 1475 1476 1476 1475 1477 1481 1483 1483 1489 1493 1489 1488
1552 1545 1543 1538 1534 1531 1528 1528 1524 1520 1517 1517 1511 1510 1506 1503 1500 1498 1496 1494 1493 1492 1491 1490 1489 1487 1485 1485 1480 1478 1477 1475 1473 1472 1473 1475 1473 1474 1475 1477 1479 1481 1486 1490 1495 1493 1491
1547 1543 1538 1535 1531 1527 1525 1522 1521 1519 1515 1513 1508 1507 1504 1499 1497 1493 1492 1490 1489 1488 1488 1488 1488 1486 1484 1481 1479 1477 1477 1475 1473 1473 1474 1476 1474 1475 1478 1476 1477 1481 1489 1486 1491 1495 1494
1540 1538 1534 1530 1528 1524 1521 1519 1516 1515 1512 1509 1505 1503 1499 1496 1493 1488 1488 1486 1486 1486 1486 1486 1486 1485 1480 1478 1476 1476 1476 1475 1473 1472 1473 1475 1476 1474 1472 1471 1475 1485 1492 1501 1499 1500 1498
1535 1532 1529 1526 1523 1520 1516 1515 1512 1512 1509 1504 1503 1499 1495 1492 1488 1485 1484 1483 1483 1483 1484 1484 1484 1483 1479 1476 1474 1474 1475 1476 1473 1472 1471 1474 1477 1476 1477 1478 1482 1487 1498 1507 1506 1499 1499
1529 1527 1524 1522 1519 1516 1513 1510 1508 1507 1505 1502 1500 1496 1491 1489 1485 1482 1481 1481 1482 1481 1482 1482 1482 1485 1479 1474 1471 1469 1473 1474 1473 1471 1472 1476 1478 1475 1475 1476 1477 1485 1493 1498 1506 1500 1498
1522 1519 1516 1516 1515 1511 1508 1505 1503 1501 1501 1498 1496 1493 1489 1485 1482 1480 1480 1481 1483 1483 1482 1480 1480 1479 1475 1474 1469 1470 1471 1473 1473 1472 1473 1474 1477 1472 1473 1473 1472 1481 1483 1490 1496 1502 1497
1516 1512 1510 1507 1507 1505 1503 1500 1497 1495 1496 1495 1493 1490 1486 1482 1480 1480 1480 1482 1482 1484 1482 1477 1479 1476 1474 1475 1473 1474 1474 1474 1472 1471 1472 1477 1476 1473 1471 1471 1472 1481 1494 1498 1497 1499 1502
1509 1506 1504 1502 1499 1499 1495 1496 1491 1491 1490 1491 1489 1487 1483 1480 1479 1480 1480 1481 1481 1482 1483 1479 1478 1476 1475 1476 1476 1474 1474 1472 1471 1472 1472 1470 1472 1474 1475 1472 1474 1483 1491 1500 1499 1497 1502
1502 1498 1496 1494 1491 1490 1487 1489 1486 1485 1485 1486 1484 1484 1481 1479 1481 1479 1479 1480 1481 1482 1485 1481 1479 1478 1477 1476 1477 1474 1473 1473 1473 1473 1472 1475 1474 1471 1474 1480 1471 1476 1477 1487 1494 1501 1504
1499 1492 1489 1487 1485 1483 1480 1480 1480 1479 1480 1481 1480 1480 1478 1476 1478 1478 1480 1480 1480 1482 1508 1481 1479 1478 1477 1477 1477 1475 1474 1474 1471 1472 1475 1475 1473 1473 1476 1479 1469 1474 1472 1484 1488 1496 1494
1492 1487 1483 1478 1477 1475 1472 1471 1473 1473 1473 1478 1476 1476 1475 1474 1476 1477 1477 1479 1480 1490 1510 1482 1477 1477 1476 1474 1476 1475 1475 1473 1471 1473 1472 1476 1476 1477 1479 1474 1470 1473 1477 1486 1492 1496 1520
1488 1483 1477 1472 1469 1467 1465 1463 1464 1465 1465 1472 1473 1472 1472 1473 1475 1475 1477 1479 1484 1498 1480 1482 1475 1474 1475 1474 1475 1474 1476 1477 1479 1484 1482 1479 1481 1481 1481 1478 1475 1475 1483 1511 1515 1526 1516
1483 1478 1471 1462 1460 1459 1456 1456 1455 1457 1458 1464 1470 1469 1470 1472 1473 1475 1477 1480 1489 1474 1474 1468 1471 1476 1478 1474 1476 1473 1476 1479 1476 1476 1487 1486 1496 1486 1485 1485 1484 1481 1485 1504 1511 1520 1514
1478 1471 1464 1459 1452 1450 1448 1447 1445 1448 1451 1461 1466 1467 1469 1470 1472 1475 1477 1487 1465 1471 1461 1465 1471 1473 1480 1478 1477 1478 1475 1478 1477 1477 1485 1487 1494 1487 1487 1486 1486 1486 1502 1488 1500 1501 1521
1471 1464 1459 1453 1448 1442 1440 1434 1436 1439 1444 1456 1463 1466 1467 1470 1472 1474 1475 1471 1470 1461 1459 1462 1467 1467 1472 1477 1480 1478 1475 1474 1476 1475 1474 1483 1494 1491 1489 1487 1486 1487 1488 1504 1516 1517 1504
1465 1458 1452 1449 1441 1437 1434 1439 1430 1431 1436 1451 1460 1464 1465 1468 1471 1473 1471 1467 1460 1459 1460 1462 1465 1465 1467 1473 1475 1476 1475 1478 1475 1476 1475 1476 1486 1497 1491 1492 1491 1491 1492 1491 1497 1511 1519
1459 1452 1446 1439 1430 1429 1427 1428 1431 1423 1428 1448 1456 1460 1462 1465 1471 1467 1466 1462 1457 1459 1459 1460 1460 1457 1463 1467 1475 1472 1477 1476 1476 1476 1479 1479 1490 1496 1493 1491 1490 1490 1490 1490 1512 1510 1513
1453 1447 1439 1432 1424 1420 1416 1414 1420 1418 1420 1440 1449 1456 1460 1462 1466 1461 1459 1457 1457 1458 1459 1459 1459 1458 1457 1461 1468 1468 1474 1475 1474 1477 1479 1480 1497 1502 1501 1499 1493 1493 1490 1489 1493 1503 1514
1448 1441 1433 1429 1424 1412 1407 1401 1411 1415 1419 1435 1443 1450 1457 1459 1457 1455 1456 1455 1457 1456 1456 1456 1457 1457 1459 1461 1459 1468 1473 1476 1476 1478 1479 1479 1488 1495 1505 1494 1490 1494 1489 1489 1497 1521 1499
1442 1435 1427 1418 1414 1406 1402 1405 1407 1411 1415 1427 1435 1439 1440 1449 1451 1451 1450 1448 1451 1456 1455 1456 1458 1459 1460 1463 1466 1468 1473 1477 1479 1480 1480 1482 1493 1496 1487 1486 1486 1486 1487 1488 1496 1491 1496
1434 1427 1420 1414 1402 1397 1399 1402 1403 1406 1415 1422 1427 1432 1436 1438 1440 1448 1450 1446 1445 1451 1453 1456 1458 1458 1459 1465 1468 1470 1471 1475 1477 1481 1482 1483 1500 1492 1496 1488 1489 1490 1488 1486 1486 1486 1488
1426 1420 1411 1406 1396 1387 1378 1391 1402 1403 1407 1414 1423 1425 1428 1434 1441 1447 1445 1443 1443 1447 1452 1451 1454 1457 1463 1466 1467 1469 1470 1470 1471 1478 1482 1484 1491 1501 1506 1493 1493 1497 1487 1483 1482 1479 1480
1418 1414 1408 1401 1390 1386 1390 1393 1399 1399 1404 1412 1418 1423 1425 1435 1437 1439 1438 1441 1442 1445 1450 1453 1453 1458 1465 1465 1468 1469 1469 1470 1473 1476 1477 1484 1489 1498 1505 1502 1513 1483 1475 1476 1478 1477 1477
1412 1408 1403 1394 1387 1386 1392 1397 1401 1402 1406 1413 1417 1421 1422 1431 1433 1437 1438 1441 1443 1446 1450 1453 1457 1460 1463 1465 1471 1475 1478 1476 1477 1477 1479 1481 1489 1493 1505 1511 1490 1480 1478 1477 1476 1480 1477
1408 1401 1394 1389 1383 1381 1385 1391 1398 1404 1408 1414 1417 1420 1422 1425 1437 1436 1438 1440 1447 1451 1454 1457 1459 1460 1463 1465 1468 1475 1482 1479 1483 1482 1479 1480 1484 1496 1499 1503 1489 1477 1474 1473 1473 1486 1480
1400 1394 1387 1376 1366 1369 1379 1387 1394 1401 1408 1413 1417 1420 1422 1427 1436 1436 1438 1442 1444 1448 1454 1457 1459 1462 1463 1468 1472 1474 1480 1468 1481 1481 1484 1486 1487 1492 1495 1500 1484 1472 1473 1473 1486 1489 1481
1392 1389 1385 1376 1369 1369 1376 1386 1392 1400 1406 1411 1417 1420 1422 1427 1437 1438 1439 1443 1445 1446 1452 1456 1460 1464 1466 1468 1470 1471 1472 1469 1471 1471 1476 1482 1489 1491 1492 1497 1497 1474 1476 1478 1483 1482 1482
1390 1386 1381 1376 1372 1379 1381 1386 1392 1399 1404 1412 1418 1421 1423 1425 1440 1442 1442 1445 1447 1448 1451 1454 1458 1459 1463 1468 1470 1469 1468 1470 1472 1478 1469 1477 1474 1480 1480 1482 1474 1476 1480 1481 1482 1483 1484